Year,Month,Day,Hour,Minute,Value (Times are PST for temperature in C)
2017,09,06,00,00,22.20
2017,09,06,00,01,22.10
2017,09,06,00,02,22.10
2017,09,06,00,03,22.10
2017,09,06,00,04,22.10
2017,09,06,00,05,22.10
2017,09,06,00,06,22.00
2017,09,06,00,07,22.00
2017,09,06,00,08,22.00
2017,09,06,00,09,21.90
2017,09,06,00,10,21.90
2017,09,06,00,11,21.90
2017,09,06,00,12,21.90
2017,09,06,00,13,21.90
2017,09,06,00,14,21.90
2017,09,06,00,15,21.90
2017,09,06,00,16,21.90
2017,09,06,00,17,21.80
2017,09,06,00,18,21.80
2017,09,06,00,19,21.80
2017,09,06,00,20,21.80
2017,09,06,00,21,21.80
2017,09,06,00,22,21.80
2017,09,06,00,23,21.80
2017,09,06,00,24,21.70
2017,09,06,00,25,21.70
2017,09,06,00,26,21.70
2017,09,06,00,27,21.70
2017,09,06,00,28,21.70
2017,09,06,00,29,21.70
2017,09,06,00,30,21.60
2017,09,06,00,31,21.60
2017,09,06,00,32,21.60
2017,09,06,00,33,21.60
2017,09,06,00,34,21.60
2017,09,06,00,35,21.60
2017,09,06,00,36,21.50
2017,09,06,00,37,21.50
2017,09,06,00,38,21.40
2017,09,06,00,39,21.40
2017,09,06,00,40,21.40
2017,09,06,00,41,21.40
2017,09,06,00,42,21.30
2017,09,06,00,43,21.30
2017,09,06,00,44,21.30
2017,09,06,00,45,21.30
2017,09,06,00,46,21.30
2017,09,06,00,47,21.30
2017,09,06,00,48,21.20
2017,09,06,00,49,21.20
2017,09,06,00,50,21.20
2017,09,06,00,51,21.20
2017,09,06,00,52,21.10
2017,09,06,00,53,21.10
2017,09,06,00,54,21.10
2017,09,06,00,55,21.10
2017,09,06,00,56,21.10
2017,09,06,00,57,21.10
2017,09,06,00,58,21.00
2017,09,06,00,59,21.00
2017,09,06,01,00,21.00
2017,09,06,01,01,21.00
2017,09,06,01,02,21.00
2017,09,06,01,03,21.00
2017,09,06,01,04,21.00
2017,09,06,01,05,21.00
2017,09,06,01,06,21.00
2017,09,06,01,07,20.90
2017,09,06,01,08,20.90
2017,09,06,01,09,20.90
2017,09,06,01,10,20.90
2017,09,06,01,11,20.90
2017,09,06,01,12,20.90
2017,09,06,01,13,20.90
2017,09,06,01,14,20.90
2017,09,06,01,15,20.90
2017,09,06,01,16,20.90
2017,09,06,01,17,20.80
2017,09,06,01,18,20.80
2017,09,06,01,19,20.80
2017,09,06,01,20,20.80
2017,09,06,01,21,20.80
2017,09,06,01,22,20.80
2017,09,06,01,23,20.80
2017,09,06,01,24,20.80
2017,09,06,01,25,20.80
2017,09,06,01,26,20.80
2017,09,06,01,27,20.80
2017,09,06,01,28,20.80
2017,09,06,01,29,20.80
2017,09,06,01,30,20.80
2017,09,06,01,31,20.80
2017,09,06,01,32,20.80
2017,09,06,01,33,20.70
2017,09,06,01,34,20.70
2017,09,06,01,35,20.70
2017,09,06,01,36,20.70
2017,09,06,01,37,20.70
2017,09,06,01,38,20.70
2017,09,06,01,39,20.70
2017,09,06,01,40,20.70
2017,09,06,01,41,20.70
2017,09,06,01,42,20.70
2017,09,06,01,43,20.70
2017,09,06,01,44,20.70
2017,09,06,01,45,20.70
2017,09,06,01,46,20.70
2017,09,06,01,47,20.70
2017,09,06,01,48,20.70
2017,09,06,01,49,20.70
2017,09,06,01,50,20.70
2017,09,06,01,51,20.70
2017,09,06,01,52,20.70
2017,09,06,01,53,20.70
2017,09,06,01,54,20.80
2017,09,06,01,55,20.80
2017,09,06,01,56,20.80
2017,09,06,01,57,20.80
2017,09,06,01,58,20.80
2017,09,06,01,59,20.90
2017,09,06,02,00,20.90
2017,09,06,02,01,20.90
2017,09,06,02,02,20.90
2017,09,06,02,03,20.90
2017,09,06,02,04,20.90
2017,09,06,02,05,20.90
2017,09,06,02,06,21.00
2017,09,06,02,07,21.00
2017,09,06,02,08,21.00
2017,09,06,02,09,21.00
2017,09,06,02,10,21.00
2017,09,06,02,11,21.10
2017,09,06,02,12,21.10
2017,09,06,02,13,21.10
2017,09,06,02,14,21.10
2017,09,06,02,15,21.10
2017,09,06,02,16,21.10
2017,09,06,02,17,21.10
2017,09,06,02,18,21.10
2017,09,06,02,19,21.10
2017,09,06,02,20,21.10
2017,09,06,02,21,21.10
2017,09,06,02,22,21.10
2017,09,06,02,23,21.10
2017,09,06,02,24,21.10
2017,09,06,02,25,21.10
2017,09,06,02,26,21.10
2017,09,06,02,27,21.10
2017,09,06,02,28,21.10
2017,09,06,02,29,21.10
2017,09,06,02,30,21.10
2017,09,06,02,31,21.10
2017,09,06,02,32,21.10
2017,09,06,02,33,21.00
2017,09,06,02,34,21.00
2017,09,06,02,35,21.00
2017,09,06,02,36,20.90
2017,09,06,02,37,20.90
2017,09,06,02,38,20.90
2017,09,06,02,39,20.90
2017,09,06,02,40,20.80
2017,09,06,02,41,20.80
2017,09,06,02,42,20.80
2017,09,06,02,43,20.80
2017,09,06,02,44,20.80
2017,09,06,02,45,20.80
2017,09,06,02,46,20.80
2017,09,06,02,47,20.80
2017,09,06,02,48,20.70
2017,09,06,02,49,20.70
2017,09,06,02,50,20.70
2017,09,06,02,51,20.70
2017,09,06,02,52,20.70
2017,09,06,02,53,20.70
2017,09,06,02,54,20.70
2017,09,06,02,55,20.70
2017,09,06,02,56,20.70
2017,09,06,02,57,20.70
2017,09,06,02,58,20.60
2017,09,06,02,59,20.60
2017,09,06,03,00,20.60
2017,09,06,03,01,20.50
2017,09,06,03,02,20.50
2017,09,06,03,03,20.50
2017,09,06,03,04,20.40
2017,09,06,03,05,20.40
2017,09,06,03,06,20.40
2017,09,06,03,07,20.40
2017,09,06,03,08,20.40
2017,09,06,03,09,20.40
2017,09,06,03,10,20.40
2017,09,06,03,11,20.30
2017,09,06,03,12,20.30
2017,09,06,03,13,20.30
2017,09,06,03,14,20.30
2017,09,06,03,15,20.30
2017,09,06,03,16,20.30
2017,09,06,03,17,20.30
2017,09,06,03,18,20.20
2017,09,06,03,19,20.20
2017,09,06,03,20,20.20
2017,09,06,03,21,20.20
2017,09,06,03,22,20.20
2017,09,06,03,23,20.20
2017,09,06,03,24,20.20
2017,09,06,03,25,20.20
2017,09,06,03,26,20.20
2017,09,06,03,27,20.20
2017,09,06,03,28,20.10
2017,09,06,03,29,20.10
2017,09,06,03,30,20.10
2017,09,06,03,31,20.10
2017,09,06,03,32,20.10
2017,09,06,03,33,20.10
2017,09,06,03,34,20.10
2017,09,06,03,35,20.10
2017,09,06,03,36,20.00
2017,09,06,03,37,20.00
2017,09,06,03,38,20.00
2017,09,06,03,39,20.00
2017,09,06,03,40,19.90
2017,09,06,03,41,19.90
2017,09,06,03,42,19.90
2017,09,06,03,43,19.90
2017,09,06,03,44,19.90
2017,09,06,03,45,19.90
2017,09,06,03,46,19.80
2017,09,06,03,47,19.80
2017,09,06,03,48,19.80
2017,09,06,03,49,19.80
2017,09,06,03,50,19.80
2017,09,06,03,51,19.80
2017,09,06,03,52,19.80
2017,09,06,03,53,19.80
2017,09,06,03,54,19.80
2017,09,06,03,55,19.80
2017,09,06,03,56,19.80
2017,09,06,03,57,19.80
2017,09,06,03,58,19.80
2017,09,06,03,59,19.80
2017,09,06,04,00,19.80
2017,09,06,04,01,19.80
2017,09,06,04,02,19.80
2017,09,06,04,03,19.80
2017,09,06,04,04,19.80
2017,09,06,04,05,19.80
2017,09,06,04,06,19.70
2017,09,06,04,07,19.70
2017,09,06,04,08,19.70
2017,09,06,04,09,19.70
2017,09,06,04,10,19.70
2017,09,06,04,11,19.70
2017,09,06,04,12,19.70
2017,09,06,04,13,19.70
2017,09,06,04,14,19.70
2017,09,06,04,15,19.60
2017,09,06,04,16,19.60
2017,09,06,04,17,19.60
2017,09,06,04,18,19.60
2017,09,06,04,19,19.60
2017,09,06,04,20,19.60
2017,09,06,04,21,19.60
2017,09,06,04,22,19.60
2017,09,06,04,23,19.50
2017,09,06,04,24,19.50
2017,09,06,04,25,19.50
2017,09,06,04,26,19.50
2017,09,06,04,27,19.40
2017,09,06,04,28,19.40
2017,09,06,04,29,19.40
2017,09,06,04,30,19.40
2017,09,06,04,31,19.40
2017,09,06,04,32,19.40
2017,09,06,04,33,19.40
2017,09,06,04,34,19.40
2017,09,06,04,35,19.40
2017,09,06,04,36,19.40
2017,09,06,04,37,19.40
2017,09,06,04,38,19.40
2017,09,06,04,39,19.30
2017,09,06,04,40,19.30
2017,09,06,04,41,19.30
2017,09,06,04,42,19.30
2017,09,06,04,43,19.30
2017,09,06,04,44,19.30
2017,09,06,04,45,19.30
2017,09,06,04,46,19.30
2017,09,06,04,47,19.20
2017,09,06,04,48,19.20
2017,09,06,04,49,19.20
2017,09,06,04,50,19.20
2017,09,06,04,51,19.20
2017,09,06,04,52,19.20
2017,09,06,04,53,19.20
2017,09,06,04,54,19.20
2017,09,06,04,55,19.20
2017,09,06,04,56,19.20
2017,09,06,04,57,19.20
2017,09,06,04,58,19.20
2017,09,06,04,59,19.20
2017,09,06,05,00,19.20
2017,09,06,05,01,19.20
2017,09,06,05,02,19.20
2017,09,06,05,03,19.20
2017,09,06,05,04,19.20
2017,09,06,05,05,19.00
2017,09,06,05,06,19.00
2017,09,06,05,07,19.00
2017,09,06,05,08,19.00
2017,09,06,05,09,18.90
2017,09,06,05,10,18.90
2017,09,06,05,11,18.90
2017,09,06,05,12,18.90
2017,09,06,05,13,18.90
2017,09,06,05,14,18.90
2017,09,06,05,15,18.90
2017,09,06,05,16,18.90
2017,09,06,05,17,18.90
2017,09,06,05,18,18.80
2017,09,06,05,19,18.80
2017,09,06,05,20,18.80
2017,09,06,05,21,18.80
2017,09,06,05,22,18.80
2017,09,06,05,23,18.80
2017,09,06,05,24,18.80
2017,09,06,05,25,18.80
2017,09,06,05,26,18.80
2017,09,06,05,27,18.80
2017,09,06,05,28,18.80
2017,09,06,05,29,18.80
2017,09,06,05,30,18.80
2017,09,06,05,31,18.80
2017,09,06,05,32,18.80
2017,09,06,05,33,18.80
2017,09,06,05,34,18.80
2017,09,06,05,35,18.70
2017,09,06,05,36,18.70
2017,09,06,05,37,18.70
2017,09,06,05,38,18.70
2017,09,06,05,39,18.70
2017,09,06,05,40,18.60
2017,09,06,05,41,18.60
2017,09,06,05,42,18.60
2017,09,06,05,43,18.60
2017,09,06,05,44,18.60
2017,09,06,05,45,18.50
2017,09,06,05,46,18.50
2017,09,06,05,47,18.50
2017,09,06,05,48,18.50
2017,09,06,05,49,18.40
2017,09,06,05,50,18.40
2017,09,06,05,51,18.40
2017,09,06,05,52,18.40
2017,09,06,05,53,18.40
2017,09,06,05,54,18.40
2017,09,06,05,55,18.40
2017,09,06,05,56,18.40
2017,09,06,05,57,18.30
2017,09,06,05,58,18.30
2017,09,06,05,59,18.30
2017,09,06,06,00,18.30
2017,09,06,06,01,18.30
2017,09,06,06,02,18.30
2017,09,06,06,03,18.30
2017,09,06,06,04,18.30
2017,09,06,06,05,18.30
2017,09,06,06,06,18.30
2017,09,06,06,07,18.30
2017,09,06,06,08,18.30
2017,09,06,06,09,18.30
2017,09,06,06,10,18.30
2017,09,06,06,11,18.30
2017,09,06,06,12,18.30
2017,09,06,06,13,18.30
2017,09,06,06,14,18.30
2017,09,06,06,15,18.30
2017,09,06,06,16,18.30
2017,09,06,06,17,18.30
2017,09,06,06,18,18.30
2017,09,06,06,19,18.30
2017,09,06,06,20,18.20
2017,09,06,06,21,18.20
2017,09,06,06,22,18.20
2017,09,06,06,23,18.20
2017,09,06,06,24,18.20
2017,09,06,06,25,18.20
2017,09,06,06,26,18.10
2017,09,06,06,27,18.10
2017,09,06,06,28,18.10
2017,09,06,06,29,18.10
2017,09,06,06,30,18.10
2017,09,06,06,31,18.00
2017,09,06,06,32,18.00
2017,09,06,06,33,18.00
2017,09,06,06,34,18.00
2017,09,06,06,35,17.90
2017,09,06,06,36,17.90
2017,09,06,06,37,17.90
2017,09,06,06,38,17.90
2017,09,06,06,39,17.90
2017,09,06,06,40,17.90
2017,09,06,06,41,17.90
2017,09,06,06,42,17.90
2017,09,06,06,43,17.80
2017,09,06,06,44,17.80
2017,09,06,06,45,17.80
2017,09,06,06,46,17.80
2017,09,06,06,47,17.80
2017,09,06,06,48,17.80
2017,09,06,06,49,17.70
2017,09,06,06,50,17.70
2017,09,06,06,51,17.70
2017,09,06,06,52,17.70
2017,09,06,06,53,17.70
2017,09,06,06,54,17.70
2017,09,06,06,55,17.70
2017,09,06,06,56,17.70
2017,09,06,06,57,17.70
2017,09,06,06,58,17.70
2017,09,06,06,59,17.70
2017,09,06,07,00,17.70
2017,09,06,07,01,17.70
2017,09,06,07,02,17.70
2017,09,06,07,03,17.70
2017,09,06,07,04,17.70
2017,09,06,07,05,17.70
2017,09,06,07,06,17.70
2017,09,06,07,07,17.70
2017,09,06,07,08,17.70
2017,09,06,07,09,17.70
2017,09,06,07,10,17.70
2017,09,06,07,11,17.70
2017,09,06,07,12,17.70
2017,09,06,07,13,17.70
2017,09,06,07,14,17.70
2017,09,06,07,15,17.70
2017,09,06,07,16,17.70
2017,09,06,07,17,17.70
2017,09,06,07,18,17.70
2017,09,06,07,19,17.70
2017,09,06,07,20,17.70
2017,09,06,07,21,17.70
2017,09,06,07,22,17.70
2017,09,06,07,23,17.80
2017,09,06,07,24,17.80
2017,09,06,07,25,17.80
2017,09,06,07,26,17.80
2017,09,06,07,27,17.80
2017,09,06,07,28,17.80
2017,09,06,07,29,17.90
2017,09,06,07,30,17.90
2017,09,06,07,31,17.90
2017,09,06,07,32,17.90
2017,09,06,07,33,17.90
2017,09,06,07,34,17.90
2017,09,06,07,35,17.90
2017,09,06,07,36,17.90
2017,09,06,07,37,17.90
2017,09,06,07,38,17.90
2017,09,06,07,39,17.90
2017,09,06,07,40,17.90
2017,09,06,07,41,17.90
2017,09,06,07,42,17.90
2017,09,06,07,43,17.90
2017,09,06,07,44,17.90
2017,09,06,07,45,17.90
2017,09,06,07,46,17.90
2017,09,06,07,47,17.90
2017,09,06,07,48,17.90
2017,09,06,07,49,17.90
2017,09,06,07,50,17.90
2017,09,06,07,51,17.90
2017,09,06,07,52,17.90
2017,09,06,07,53,17.90
2017,09,06,07,54,17.90
2017,09,06,07,55,18.00
2017,09,06,07,56,18.00
2017,09,06,07,57,18.00
2017,09,06,07,58,18.00
2017,09,06,07,59,18.10
2017,09,06,08,00,18.10
2017,09,06,08,01,18.10
2017,09,06,08,02,18.10
2017,09,06,08,03,18.10
2017,09,06,08,04,18.10
2017,09,06,08,05,18.10
2017,09,06,08,06,18.10
2017,09,06,08,07,18.20
2017,09,06,08,08,18.20
2017,09,06,08,09,18.20
2017,09,06,08,10,18.20
2017,09,06,08,11,18.20
2017,09,06,08,12,18.20
2017,09,06,08,13,18.20
2017,09,06,08,14,18.30
2017,09,06,08,15,18.30
2017,09,06,08,16,18.30
2017,09,06,08,17,18.40
2017,09,06,08,18,18.40
2017,09,06,08,19,18.40
2017,09,06,08,20,18.40
2017,09,06,08,21,18.50
2017,09,06,08,22,18.50
2017,09,06,08,23,18.50
2017,09,06,08,24,18.60
2017,09,06,08,25,18.60
2017,09,06,08,26,18.60
2017,09,06,08,27,18.60
2017,09,06,08,28,18.60
2017,09,06,08,29,18.70
2017,09,06,08,30,18.70
2017,09,06,08,31,18.70
2017,09,06,08,32,18.70
2017,09,06,08,33,18.70
2017,09,06,08,34,18.80
2017,09,06,08,35,18.80
2017,09,06,08,36,18.80
2017,09,06,08,37,18.80
2017,09,06,08,38,18.90
2017,09,06,08,39,18.90
2017,09,06,08,40,19.00
2017,09,06,08,41,19.00
2017,09,06,08,42,19.00
2017,09,06,08,43,19.10
2017,09,06,08,44,19.10
2017,09,06,08,45,19.10
2017,09,06,08,46,19.20
2017,09,06,08,47,19.20
2017,09,06,08,48,19.20
2017,09,06,08,49,19.20
2017,09,06,08,50,19.20
2017,09,06,08,51,19.20
2017,09,06,08,52,19.20
2017,09,06,08,53,19.20
2017,09,06,08,54,19.20
2017,09,06,08,55,19.30
2017,09,06,08,56,19.30
2017,09,06,08,57,19.30
2017,09,06,08,58,19.30
2017,09,06,08,59,19.30
2017,09,06,09,00,19.40
2017,09,06,09,01,19.40
2017,09,06,09,02,19.40
2017,09,06,09,03,19.40
2017,09,06,09,04,19.40
2017,09,06,09,05,19.40
2017,09,06,09,06,19.50
2017,09,06,09,07,19.50
2017,09,06,09,08,19.50
2017,09,06,09,09,19.50
2017,09,06,09,10,19.60
2017,09,06,09,11,19.60
2017,09,06,09,12,19.60
2017,09,06,09,13,19.60
2017,09,06,09,14,19.60
2017,09,06,09,15,19.70
2017,09,06,09,16,19.70
2017,09,06,09,17,19.70
2017,09,06,09,18,19.70
2017,09,06,09,19,19.80
2017,09,06,09,20,19.80
2017,09,06,09,21,19.80
2017,09,06,09,22,19.80
2017,09,06,09,23,19.80
2017,09,06,09,24,19.90
2017,09,06,09,25,19.90
2017,09,06,09,26,19.90
2017,09,06,09,27,20.00
2017,09,06,09,28,20.10
2017,09,06,09,29,20.10
2017,09,06,09,30,20.20
2017,09,06,09,31,20.30
2017,09,06,09,32,20.30
2017,09,06,09,33,20.40
2017,09,06,09,34,20.40
2017,09,06,09,35,20.40
2017,09,06,09,36,20.50
2017,09,06,09,37,20.50
2017,09,06,09,38,20.60
2017,09,06,09,39,20.60
2017,09,06,09,40,20.60
2017,09,06,09,41,20.70
2017,09,06,09,42,20.70
2017,09,06,09,43,20.70
2017,09,06,09,44,20.80
2017,09,06,09,45,20.80
2017,09,06,09,46,20.90
2017,09,06,09,47,20.90
2017,09,06,09,48,20.90
2017,09,06,09,49,21.00
2017,09,06,09,50,21.00
2017,09,06,09,51,21.10
2017,09,06,09,52,21.10
2017,09,06,09,53,21.10
2017,09,06,09,54,21.20
2017,09,06,09,55,21.20
2017,09,06,09,56,21.20
2017,09,06,09,57,21.30
2017,09,06,09,58,21.30
2017,09,06,09,59,21.30
2017,09,06,10,00,21.40
2017,09,06,10,01,21.40
2017,09,06,10,02,21.50
2017,09,06,10,03,21.50
2017,09,06,10,04,21.60
2017,09,06,10,05,21.60
2017,09,06,10,06,21.60
2017,09,06,10,07,21.60
2017,09,06,10,08,21.80
2017,09,06,10,09,21.80
2017,09,06,10,10,21.80
2017,09,06,10,11,21.80
2017,09,06,10,12,21.80
2017,09,06,10,13,21.80
2017,09,06,10,14,21.80
2017,09,06,10,15,21.80
2017,09,06,10,16,21.70
2017,09,06,10,17,21.70
2017,09,06,10,18,21.80
2017,09,06,10,19,21.80
2017,09,06,10,20,21.80
2017,09,06,10,21,21.80
2017,09,06,10,22,21.80
2017,09,06,10,23,21.90
2017,09,06,10,24,21.90
2017,09,06,10,25,21.90
2017,09,06,10,26,21.90
2017,09,06,10,27,21.90
2017,09,06,10,28,21.90
2017,09,06,10,29,21.90
2017,09,06,10,30,21.90
2017,09,06,10,31,21.90
2017,09,06,10,32,21.90
2017,09,06,10,33,22.00
2017,09,06,10,34,22.00
2017,09,06,10,35,22.00
2017,09,06,10,36,22.10
2017,09,06,10,37,22.10
2017,09,06,10,38,22.10
2017,09,06,10,39,22.20
2017,09,06,10,40,22.20
2017,09,06,10,41,22.20
2017,09,06,10,42,22.30
2017,09,06,10,43,22.30
2017,09,06,10,44,22.30
2017,09,06,10,45,22.30
2017,09,06,10,46,22.40
2017,09,06,10,47,22.40
2017,09,06,10,48,22.50
2017,09,06,10,49,22.50
2017,09,06,10,50,22.60
2017,09,06,10,51,22.70
2017,09,06,10,52,22.70
2017,09,06,10,53,22.70
2017,09,06,10,54,22.70
2017,09,06,10,55,22.70
2017,09,06,10,56,22.70
2017,09,06,10,57,22.60
2017,09,06,10,58,22.60
2017,09,06,10,59,22.60
2017,09,06,11,00,22.60
2017,09,06,11,01,22.60
2017,09,06,11,02,22.70
2017,09,06,11,03,22.70
2017,09,06,11,04,22.60
2017,09,06,11,05,22.60
2017,09,06,11,06,22.60
2017,09,06,11,07,22.70
2017,09,06,11,08,22.70
2017,09,06,11,09,22.80
2017,09,06,11,10,22.80
2017,09,06,11,11,22.80
2017,09,06,11,12,22.90
2017,09,06,11,13,22.90
2017,09,06,11,14,23.00
2017,09,06,11,15,23.10
2017,09,06,11,16,23.10
2017,09,06,11,17,23.10
2017,09,06,11,18,23.10
2017,09,06,11,19,23.10
2017,09,06,11,20,23.10
2017,09,06,11,21,23.10
2017,09,06,11,22,23.10
2017,09,06,11,23,23.10
2017,09,06,11,24,23.10
2017,09,06,11,25,23.10
2017,09,06,11,26,23.10
2017,09,06,11,27,23.10
2017,09,06,11,28,23.10
2017,09,06,11,29,23.20
2017,09,06,11,30,23.20
2017,09,06,11,31,23.20
2017,09,06,11,32,23.20
2017,09,06,11,33,23.20
2017,09,06,11,34,23.20
2017,09,06,11,35,23.20
2017,09,06,11,36,23.20
2017,09,06,11,37,23.20
2017,09,06,11,38,23.20
2017,09,06,11,39,23.20
2017,09,06,11,40,23.20
2017,09,06,11,41,23.30
2017,09,06,11,42,23.30
2017,09,06,11,43,23.40
2017,09,06,11,44,23.40
2017,09,06,11,45,23.50
2017,09,06,11,46,23.60
2017,09,06,11,47,23.70
2017,09,06,11,48,23.70
2017,09,06,11,49,23.80
2017,09,06,11,50,23.80
2017,09,06,11,51,23.90
2017,09,06,11,52,23.90
2017,09,06,11,53,23.90
2017,09,06,11,54,24.00
2017,09,06,11,55,24.00
2017,09,06,11,56,24.00
2017,09,06,11,57,24.10
2017,09,06,11,58,24.10
2017,09,06,11,59,24.20
2017,09,06,12,00,24.30
2017,09,06,12,01,24.30
2017,09,06,12,02,24.40
2017,09,06,12,03,24.40
2017,09,06,12,04,24.50
2017,09,06,12,05,24.60
2017,09,06,12,06,24.60
2017,09,06,12,07,24.70
2017,09,06,12,08,24.70
2017,09,06,12,09,24.70
2017,09,06,12,10,24.70
2017,09,06,12,11,24.80
2017,09,06,12,12,24.80
2017,09,06,12,13,24.80
2017,09,06,12,14,24.80
2017,09,06,12,15,24.80
2017,09,06,12,16,24.80
2017,09,06,12,17,24.80
2017,09,06,12,18,24.80
2017,09,06,12,19,24.90
2017,09,06,12,20,24.90
2017,09,06,12,21,25.00
2017,09,06,12,22,25.00
2017,09,06,12,23,25.10
2017,09,06,12,24,25.20
2017,09,06,12,25,25.20
2017,09,06,12,26,25.10
2017,09,06,12,27,25.10
2017,09,06,12,28,25.10
2017,09,06,12,29,25.20
2017,09,06,12,30,25.30
2017,09,06,12,31,25.30
2017,09,06,12,32,25.50
2017,09,06,12,33,25.50
2017,09,06,12,34,25.60
2017,09,06,12,35,25.60
2017,09,06,12,36,25.60
2017,09,06,12,37,25.60
2017,09,06,12,38,25.60
2017,09,06,12,39,25.60
2017,09,06,12,40,25.60
2017,09,06,12,41,25.50
2017,09,06,12,42,25.50
2017,09,06,12,43,25.60
2017,09,06,12,44,25.60
2017,09,06,12,45,25.60
2017,09,06,12,46,25.60
2017,09,06,12,47,25.60
2017,09,06,12,48,25.60
2017,09,06,12,49,25.60
2017,09,06,12,50,25.60
2017,09,06,12,51,25.70
2017,09,06,12,52,25.70
2017,09,06,12,53,25.80
2017,09,06,12,54,25.80
2017,09,06,12,55,25.80
2017,09,06,12,56,25.80
2017,09,06,12,57,25.80
2017,09,06,12,58,25.90
2017,09,06,12,59,25.90
2017,09,06,13,00,26.00
2017,09,06,13,01,26.00
2017,09,06,13,02,26.10
2017,09,06,13,03,26.10
2017,09,06,13,04,26.10
2017,09,06,13,05,26.10
2017,09,06,13,06,26.20
2017,09,06,13,07,26.20
2017,09,06,13,08,26.20
2017,09,06,13,09,26.20
2017,09,06,13,10,26.20
2017,09,06,13,11,26.20
2017,09,06,13,12,26.20
2017,09,06,13,13,26.20
2017,09,06,13,14,26.30
2017,09,06,13,15,26.30
2017,09,06,13,16,26.30
2017,09,06,13,17,26.40
2017,09,06,13,18,26.50
2017,09,06,13,19,26.50
2017,09,06,13,20,26.60
2017,09,06,13,21,26.70
2017,09,06,13,22,26.80
2017,09,06,13,23,26.80
2017,09,06,13,24,26.90
2017,09,06,13,25,26.90
2017,09,06,13,26,27.00
2017,09,06,13,27,27.10
2017,09,06,13,28,27.20
2017,09,06,13,29,27.30
2017,09,06,13,30,27.40
2017,09,06,13,31,27.50
2017,09,06,13,32,27.60
2017,09,06,13,33,27.70
2017,09,06,13,34,27.80
2017,09,06,13,35,27.90
2017,09,06,13,36,28.10
2017,09,06,13,37,28.20
2017,09,06,13,38,28.30
2017,09,06,13,39,28.30
2017,09,06,13,40,28.30
2017,09,06,13,41,28.30
2017,09,06,13,42,28.40
2017,09,06,13,43,28.40
2017,09,06,13,44,28.40
2017,09,06,13,45,28.40
2017,09,06,13,46,28.40
2017,09,06,13,47,28.40
2017,09,06,13,48,28.50
2017,09,06,13,49,28.50
2017,09,06,13,50,28.60
2017,09,06,13,51,28.60
2017,09,06,13,52,28.60
2017,09,06,13,53,28.60
2017,09,06,13,54,28.60
2017,09,06,13,55,28.60
2017,09,06,13,56,28.70
2017,09,06,13,57,28.70
2017,09,06,13,58,28.70
2017,09,06,13,59,28.70
2017,09,06,14,00,28.70
2017,09,06,14,01,28.60
2017,09,06,14,02,28.60
2017,09,06,14,03,28.50
2017,09,06,14,04,28.50
2017,09,06,14,05,28.50
2017,09,06,14,06,28.50
2017,09,06,14,07,28.50
2017,09,06,14,08,28.50
2017,09,06,14,09,28.60
2017,09,06,14,10,28.60
2017,09,06,14,11,28.60
2017,09,06,14,12,28.60
2017,09,06,14,13,28.60
2017,09,06,14,14,28.60
2017,09,06,14,15,28.60
2017,09,06,14,16,28.60
2017,09,06,14,17,28.60
2017,09,06,14,18,28.60
2017,09,06,14,19,28.70
2017,09,06,14,20,28.60
2017,09,06,14,21,28.60
2017,09,06,14,22,28.60
2017,09,06,14,23,28.60
2017,09,06,14,24,28.60
2017,09,06,14,25,28.60
2017,09,06,14,26,28.60
2017,09,06,14,27,28.60
2017,09,06,14,28,28.70
2017,09,06,14,29,28.70
2017,09,06,14,30,28.70
2017,09,06,14,31,28.70
2017,09,06,14,32,28.60
2017,09,06,14,33,28.70
2017,09,06,14,34,28.70
2017,09,06,14,35,28.70
2017,09,06,14,36,28.60
2017,09,06,14,37,28.60
2017,09,06,14,38,28.60
2017,09,06,14,39,28.50
2017,09,06,14,40,28.50
2017,09,06,14,41,28.50
2017,09,06,14,42,28.50
2017,09,06,14,43,28.50
2017,09,06,14,44,28.50
2017,09,06,14,45,28.60
2017,09,06,14,46,28.60
2017,09,06,14,47,28.50
2017,09,06,14,48,28.50
2017,09,06,14,49,28.60
2017,09,06,14,50,28.60
2017,09,06,14,51,28.60
2017,09,06,14,52,28.70
2017,09,06,14,53,28.70
2017,09,06,14,54,28.80
2017,09,06,14,55,28.80
2017,09,06,14,56,28.80
2017,09,06,14,57,28.80
2017,09,06,14,58,28.80
2017,09,06,14,59,28.80
2017,09,06,15,00,28.80
2017,09,06,15,01,28.80
2017,09,06,15,02,28.70
2017,09,06,15,03,28.60
2017,09,06,15,04,28.40
2017,09,06,15,05,28.40
2017,09,06,15,06,28.40
2017,09,06,15,07,28.40
2017,09,06,15,08,28.40
2017,09,06,15,09,28.00
2017,09,06,15,10,27.80
2017,09,06,15,11,27.70
2017,09,06,15,12,27.70
2017,09,06,15,13,27.60
2017,09,06,15,14,27.60
2017,09,06,15,15,27.60
2017,09,06,15,16,27.60
2017,09,06,15,17,27.50
2017,09,06,15,18,27.50
2017,09,06,15,19,27.50
2017,09,06,15,20,27.50
2017,09,06,15,21,27.50
2017,09,06,15,22,27.60
2017,09,06,15,23,27.60
2017,09,06,15,24,27.70
2017,09,06,15,25,27.70
2017,09,06,15,26,27.70
2017,09,06,15,27,27.60
2017,09,06,15,28,27.60
2017,09,06,15,29,27.60
2017,09,06,15,30,27.60
2017,09,06,15,31,27.60
2017,09,06,15,32,27.60
2017,09,06,15,33,27.60
2017,09,06,15,34,27.60
2017,09,06,15,35,27.50
2017,09,06,15,36,27.50
2017,09,06,15,37,27.50
2017,09,06,15,38,27.50
2017,09,06,15,39,27.60
2017,09,06,15,40,27.60
2017,09,06,15,41,27.60
2017,09,06,15,42,27.60
2017,09,06,15,43,27.60
2017,09,06,15,44,27.60
2017,09,06,15,45,27.60
2017,09,06,15,46,27.60
2017,09,06,15,47,27.60
2017,09,06,15,48,27.60
2017,09,06,15,49,27.60
2017,09,06,15,50,27.60
2017,09,06,15,51,27.60
2017,09,06,15,52,27.50
2017,09,06,15,53,27.40
2017,09,06,15,54,27.30
2017,09,06,15,55,27.10
2017,09,06,15,56,27.00
2017,09,06,15,57,27.00
2017,09,06,15,58,26.90
2017,09,06,15,59,26.90
2017,09,06,16,00,26.80
2017,09,06,16,01,26.80
2017,09,06,16,02,26.80
2017,09,06,16,03,26.80
2017,09,06,16,04,26.80
2017,09,06,16,05,26.80
2017,09,06,16,06,26.80
2017,09,06,16,07,26.80
2017,09,06,16,08,26.70
2017,09,06,16,09,26.70
2017,09,06,16,10,26.70
2017,09,06,16,11,26.60
2017,09,06,16,12,26.50
2017,09,06,16,13,26.40
2017,09,06,16,14,26.40
2017,09,06,16,15,26.30
2017,09,06,16,16,26.20
2017,09,06,16,17,26.20
2017,09,06,16,18,26.10
2017,09,06,16,19,26.00
2017,09,06,16,20,25.90
2017,09,06,16,21,25.80
2017,09,06,16,22,25.80
2017,09,06,16,23,25.70
2017,09,06,16,24,25.70
2017,09,06,16,25,25.60
2017,09,06,16,26,25.50
2017,09,06,16,27,25.40
2017,09,06,16,28,25.40
2017,09,06,16,29,25.30
2017,09,06,16,30,25.30
2017,09,06,16,31,25.20
2017,09,06,16,32,25.20
2017,09,06,16,33,25.20
2017,09,06,16,34,25.20
2017,09,06,16,35,25.20
2017,09,06,16,36,25.20
2017,09,06,16,37,25.20
2017,09,06,16,38,25.30
2017,09,06,16,39,25.30
2017,09,06,16,40,25.30
2017,09,06,16,41,25.30
2017,09,06,16,42,25.20
2017,09,06,16,43,25.20
2017,09,06,16,44,25.10
2017,09,06,16,45,25.00
2017,09,06,16,46,25.00
2017,09,06,16,47,24.90
2017,09,06,16,48,24.90
2017,09,06,16,49,24.90
2017,09,06,16,50,24.80
2017,09,06,16,51,24.80
2017,09,06,16,52,24.80
2017,09,06,16,53,24.80
2017,09,06,16,54,24.80
2017,09,06,16,55,24.80
2017,09,06,16,56,24.70
2017,09,06,16,57,24.70
2017,09,06,16,58,24.70
2017,09,06,16,59,24.70
2017,09,06,17,00,24.60
2017,09,06,17,01,24.60
2017,09,06,17,02,24.50
2017,09,06,17,03,24.50
2017,09,06,17,04,24.50
2017,09,06,17,05,24.40
2017,09,06,17,06,24.40
2017,09,06,17,07,24.40
2017,09,06,17,08,24.40
2017,09,06,17,09,24.30
2017,09,06,17,10,24.30
2017,09,06,17,11,24.30
2017,09,06,17,12,24.30
2017,09,06,17,13,24.20
2017,09,06,17,14,24.20
2017,09,06,17,15,24.20
2017,09,06,17,16,24.20
2017,09,06,17,17,24.20
2017,09,06,17,18,24.10
2017,09,06,17,19,24.00